Regional Weather Roundup
Issued by NWS Little Rock, AR

Home | Current Version | Previous Version | Graphics & Text | Print | Product List | Glossary On
Versions: 1 2 3 4 5 6 7 8 9 10 11 12 13 14 15 16 17 18 19 20 21 22 23 24 25 26 27 28 29 30 31 32 33 34 35 36 37 38 39 40 41 42 43 44 45 46 47 48 49 50
058
ASUS44 KLZK 212305
RWRLZK

WEATHER ROUNDUP FOR ARKANSAS
NATIONAL WEATHER SERVICE LITTLE ROCK AR
500 PM CST TUE NOV 21 2017

NOTE: "FAIR" INDICATES FEW OR NO CLOUDS BELOW 12,000 FEET WITH NO
SIGNIFICANT WEATHER AND/OR OBSTRUCTIONS TO VISIBILITY.

ARZ001-003-010-029-220000-
NORTHWEST ARKANSAS

CITY           SKY/WX    TMP DP  RH WIND       PRES   REMARKS
FAYETTEVILLE   CLEAR     55  36  48 N12G22    30.09R
FORT SMITH     CLEAR     58  44  60 W8        30.07R
HARRISON       CLEAR     55  35  47 N7        30.08R
BENTONVILLE    CLEAR     54  34  46 N18G25    30.13R
ROGERS         CLEAR     54  34  46 N14       30.12R
SILOAM SPGS    CLEAR     54  33  45 N13       30.12R
HIGHFILL       CLEAR     54  34  46 N16       30.11R
SPRINGDALE     CLEAR     55  32  41 N14       30.11R
$$

ARZ004-005-016-220000-
NORTH CENTRAL ARKANSAS

CITY           SKY/WX    TMP DP  RH WIND       PRES   REMARKS
BATESVILLE     CLEAR     58  41  53 N3        30.03R
FLIPPIN        CLEAR     57  35  43 N8G16     30.07R
MTN HOME       CLEAR     56  35  45 VRB6      30.06R
$$

ARZ040-041-220000-
WEST CENTRAL ARKANSAS

CITY           SKY/WX    TMP DP  RH WIND       PRES   REMARKS
MENA           CLOUDY    63  54  72 W3        30.03R
MOUNT IDA      PTCLDY    59  51  75 CALM      29.99R
$$

ARZ009-017-025-026-028-220000-
NORTHEAST ARKANSAS

CITY           SKY/WX    TMP DP  RH WIND       PRES   REMARKS
CORNING        FAIR      54  43  66 CALM      30.03R
JONESBORO      PTCLDY    56  46  69 W3        30.02R
NEWPORT        PTCLDY    52  44  74 S6        30.03R
WALNUT RIDGE     N/A     53  42  66 N5        30.03R
BLYTHEVILLE    MOCLDY    55  42  61 S3        30.02R
NW BLYTHEVILLE CLOUDY    57  43  58 S3        30.02R
$$

ARZ022-023-033-042-044-220000-
CENTRAL ARKANSAS

CITY           SKY/WX    TMP DP  RH WIND       PRES   REMARKS
LITTLE ROCK    MOCLDY    58  47  66 E3        30.01R
N LITTLE ROCK    N/A     57  47  68 CALM      30.04R
JACKSONVILLE   PTCLDY    57  44  63 CALM      30.00R
SEARCY         PTCLDY    57  46  66 CALM      30.02R
HOT SPRINGS    PTCLDY    61  50  67 NW3       30.01R
RUSSELLVILLE   CLEAR     59  45  59 W6        30.02R
CLINTON        FAIR      54  46  76 CALM      30.03R
$$

ARZ036-220000-
EAST ARKANSAS

CITY           SKY/WX    TMP DP  RH WIND       PRES   REMARKS
WEST MEMPHIS   PTCLDY    54  42  64 CALM      30.01R
$$

ARZ050-053-066-070-073-220000-
SOUTHWEST ARKANSAS

CITY           SKY/WX    TMP DP  RH WIND       PRES   REMARKS
ARKADELPHIA    FAIR      58  48  69 W3        30.02R
CAMDEN         MOCLDY    61  48  63 CALM      30.00S
TEXARKANA      CLOUDY    61  52  72 CALM      30.01R
EL DORADO      CLOUDY    61  52  72 CALM      30.01S
DE QUEEN       CLEAR     61  52  72 CALM      30.01R
$$

ARZ056-057-069-220000-
SOUTHEAST ARKANSAS

CITY           SKY/WX    TMP DP  RH WIND       PRES   REMARKS
PINE BLUFF     PTCLDY    61  48  62 SW3       30.00R
STUTTGART      PTCLDY    59  45  59 CALM      30.01R
MONTICELLO     CLOUDY    61  47  59 CALM      30.01R

$$






USA.gov is the U.S. government's official web portal to all federal, state and local government web resources and services.